Location: Zagreb
(45.8000°N, 16.0000°E)
Time: 08:40:32
(UTC+01:00)

BlueWalker 3 - Pass Details

Date: 11 December 2022
Orbit: 499 x 517 km, 53.2° (Epoch: 01 February)

Event Time Altitude Azimuth Distance (km) Brightness Sun altitude
Rises 17:34:06 0° 300° (WNW) 2,629 6.2 -13.8°
Reaches altitude 10° 17:36:20 10° 297° (WNW) 1,736 5.3 -14.1°
Maximum altitude 17:40:11 59° 218° (SW) 592 2.5 -14.8°
Drops below altitude 10° 17:44:00 10° 138° (SE) 1,714 4.4 -15.4°
Enters shadow 17:44:38 - 137° (SE) 1,963 4.7 -15.5°
